Regional Weather Roundup
Issued by NWS

Home | Current Version | Previous Version | Graphics & Text | Print | Product List | Glossary On
Versions: 1 2 3 4 5 6 7 8 9 10 11 12 13 14 15 16 17 18 19 20 21 22 23 24 25 26 27 28 29 30 31 32 33 34 35 36 37 38 39 40 41 42 43 44 45 46 47 48 49 50
000
ASUS45 KTFX 042010
RWRMT
MONTANA REGIONAL WEATHER ROUNDUP
NATIONAL WEATHER SERVICE GREAT FALLS MT
200 PM MDT SAT JUL 04 2015

NOTE: "FAIR" INDICATES FEW OR NO CLOUDS BELOW 12000 FEET WITH NO
SIGNIFICANT WEATHER AND/OR OBSTRUCTIONS TO VISIBILITY.

MTZ001>007-043-042100-
WEST OF THE DIVIDE

CITY           SKY/WX    TMP DP  RH WIND       PRES   REMARKS
KALISPELL      CLEAR     92  41  17 VRB6      29.77F
MISSOULA       SUNNY     91  37  15 VRB5      29.83F
BUTTE          SUNNY     86  28  12 N9        30.00F
MULLAN PASS    SUNNY     77  41  27 VRB7      30.05F
DEER LODGE       N/A     88  43  20 CALM      29.96F
EUREKA           N/A     91  43  18 NE6       29.75F
HAMILTON         N/A     91  41  17 SE9       29.85F
LIBBY            N/A     91  41  17 NE6       29.75F
PLAINS           N/A     95  43  16 SW12      29.79F HX  91
RONAN            N/A     92  44  18 SE3       29.87F
THOMPSON FALLS   N/A     96  39  13 W15       29.81F HX  91
$$

MTZ008-052>055-042100-
SOUTHWEST MONTANA

CITY           SKY/WX    TMP DP  RH WIND       PRES   REMARKS
BOZEMAN        SUNNY     89  44  20 NW10      29.92F
DILLON         SUNNY     87  39  18 SE10G21   29.96F
W YELLOWSTONE  SUNNY     82  37  20 SW8G23    30.08F
THREE FORKS      N/A     90  41  18 SE13      29.91F
TWIN BRIDGES     N/A     89  38  16 S7        29.95F
$$

MTZ009-010-012-014-046-048-049-054-042100-
EAST SLOPES AND CENTRAL MONTANA

CITY           SKY/WX    TMP DP  RH WIND       PRES   REMARKS
CUT BANK       SUNNY     78  50  37 N14       29.91F
GREAT FALLS    SUNNY     84  52  33 N10       29.89F
MALMSTROM AFB  SUNNY     81  52  36 E6        29.89F
HELENA         SUNNY     93  37  14 W7        29.85F
CONRAD           N/A     79  59  50 N7        29.94F
$$

MTZ011-013-016-021-045-047-050-051-042100-
NORTH CENTRAL MONTANA

CITY           SKY/WX    TMP DP  RH WIND       PRES   REMARKS
HAVRE          SUNNY     86  55  34 NE9G21    29.82S
LEWISTOWN      SUNNY     88  47  24 NW13G21   29.89S
CHINOOK          N/A     84  55  37 N9        29.81F
FORT BENTON      N/A     86  54  32 W6        29.83F
$$

MTZ017>020-022>027-061-062-042100-
NORTHEAST MONTANA

CITY           SKY/WX    TMP DP  RH WIND       PRES   REMARKS
GLASGOW        SUNNY     94  52  24 N12G21    29.69S HX  91
JORDAN           N/A     97  49  19 NW15G28   29.72S HX  94
SIDNEY         SUNNY     90  55  31 SE9       29.68F
WOLF POINT     MOSUNNY   97  57  26 N9        29.65F HX  96
PLENTYWOOD       N/A     75  70  83 NE12      29.73R
POPLAR           N/A     93  59  31 N5        29.66F HX  92
SCOBEY           N/A     83  58  42 N15       29.75F
$$

MTZ028>42-056>058-042100-
SOUTHCENTRAL AND SOUTHEAST MONTANA

CITY           SKY/WX    TMP DP  RH WIND       PRES   REMARKS
BAKER          SUNNY     92  50  23 SW8       29.79F
BILLINGS       MOSUNNY   97  36  12 NW14G20   29.82F HX  92
LIVINGSTON     SUNNY     91  40  16 W10       29.90F
MILES CITY     SUNNY     99  51  19 W15G22    29.72F HX  96
EKALAKA          N/A     91  46  21 W6        29.83F
FORSYTH          N/A     95  48  20 W7        29.73F HX  91
LAUREL           N/A     96  44  16 NW3       29.83F HX  92
ROUNDUP          N/A     95  38  13 CALM      29.75S VSB 0   HX  90
$$

REGIONAL REPORTS...DAKOTAS

CITY           SKY/WX    TMP DP  RH WIND       PRES   REMARKS
WILLISTON      SUNNY     95  56  26 S8        29.68F HX  93
MINOT          SUNNY     87  65  47 S16G23    29.71F
DICKINSON      SUNNY     88  65  46 SW7       29.76F HX  90
BEACH          FAIR      90  59  35 SE8       29.77F
CROSBY         FAIR      82  73  74 CALM      29.69F
BISMARCK       SUNNY     87  67  51 S14       29.76F HX  90
GRAND FORKS    MOSUNNY   85  67  54 S15G21    29.78F HAZE
FARGO          MOSUNNY   84  67  56 S13       29.82F HAZE
BUFFALO SD       N/A     91  56  30 W9        29.75F
RAPID CITY       N/A     88  67  49 SE7       29.84S HX  91
$$

REGIONAL REPORTS...WYOMING/IDAHO/WASHINGTON

CITY           SKY/WX    TMP DP  RH WIND       PRES   REMARKS
GILLETTE       SUNNY     91  46  21 NW9G20    29.90S
SHERIDAN       MOSUNNY   93  46  19 VRB3      29.86S
BUFFALO WY     MOSUNNY   89  48  24 NE6       29.95F
CODY           SUNNY     90  43  19 NE9       29.93F
YELLOWSTONE LA   N/A     75  42  30 E8        30.19F
IDAHO FALLS    SUNNY     89  47  23 NW6       29.96F
SALMON         MOSUNNY   88  43  20 NW8       29.86F
BOISE          MOSUNNY   97  44  16 W12       29.84F HX  93
SPOKANE        MOSUNNY   91  46  21 SW7G16    29.80F
$$

REGIONAL REPORTS...ALBERTA

CITY           SKY/WX    TMP DP  RH WIND       PRES   REMARKS
EDMONTON       MOSUNNY   70  45  40 N16G23    29.94R
CALGARY        MOSUNNY   73  46  38 SE12      29.93F
LETHBRIDGE     MOSUNNY   73  55  53 E7        29.91F
MEDICINE HAT   MOSUNNY   82  48  30 NE9       29.86F
MILK RIVER       N/A     75  52  43 NE10        N/A
ONEFOUR          N/A     81  46  30 E8          N/A
$$

REGIONAL REPORTS...SASKATCHEWAN

CITY           SKY/WX    TMP DP  RH WIND       PRES   REMARKS
SWIFT CURRENT  MOSUNNY   75  52  43 N7        29.85S
REGINA         PTSUNNY   70  63  78 E2        29.78F
SASKATOON      SUNNY     79  50  36 N17G24    29.81R SMOKE
CYPRESS HILLS    N/A     70  48  46 N8          N/A
VAL MARIE        N/A     81  55  41 NE21G26     N/A
ROCKGLEN         N/A     75  61  60 N16G23      N/A
$$


USA.gov is the U.S. government's official web portal to all federal, state and local government web resources and services.